Starlink 2731

operational
NORAD ID: 48651 Int'l Des: 2021-044 Owner: SPXS Country: US Constellation: starlink
LEOCIRCULARSTARLINK_TYPE

About Starlink 2731

Description loading...

Live Position

Loading 3D Globe...

Upcoming Passes

Altitude History

Altitude vs Time

uPlot chart will show altitude changes over time

Two-Line Element Set

1 48651U 21044P 25349.82449526 .00000677 00000-0 64357-4 0 9997
2 48651 53.0546 138.1020 0001259 87.9718 272.1415 15.06406889251064
Epoch: Dec 15, 2025 • Age: 25 hours

Current Status

Altitude 551.9 km
Velocity 7.59 km/s
Sub-Earth Point -16.45°S, 67.9°W
Launch Date May 26, 2021
Age 4.5 years
Type internet

Technical Details

Classification Payload
Mass 260.00 kg
Dry Mass 248.00 kg
Total Mass 260.00 kg
Length 0.20 m
Diameter 2.80 m
Span 9.00 m
Shape Box + pan
Manufacturer SPXS
Bus Type Starlink
Phase Status In Orbit
Owner/State SPXS/US

Large Constellations

Loading constellations...